Home   Weather   Taiyuan   Past weeks

Flag for China Past Weather in Taiyuan, Shanxi, China — Yesterday and Last 2 Weeks

55 °F

Partly sunny.

Feels Like: 55 °F
Forecast: 45 / 55 °F
Wind: 1 mph from West

Location: Taiyuan Airport

Current Time: Oct 21, 2016 at 5:20:40 PM

Latest Report: Oct 21, 2016 at 4:30 PM

Visibility: 4 mi

Pressure: 30.01 "Hg (27.31 "Hg at 790m altitude)

Humidity: 82%

Dew Point: 50 °F

Location of TaiyuanLocation

Past Weather in Taiyuan — Graph


Taiyuan Temperature Yesterday

Maximum temperature yesterday: 59 °F (at 12:00 AM)
Minimum temperature yesterday: 52 °F (at 10:00 PM)
Average temperature yesterday: 56 °F

High & Low Weather Summary for the Past Weeks

High75 °F (Oct 19, 3:30 PM)100% (Oct 8, 4:30 AM)30.30 "Hg (Oct 8, 4:30 AM)
Low36 °F (Oct 8, 6:30 AM)16% (Oct 17, 4:30 PM)29.95 "Hg (Oct 19, 3:00 PM)
Average55 °F69%30.14 "Hg
* Reported Oct 6 4:00 PM — Oct 21 4:00 PM, Taiyuan, Weather by CustomWeather, © 2016

Note: Actual official high and low records may vary slightly from our data, if they occured in-between our weather recording intervals... More about our weather records


Taiyuan Weather History for the Previous 24 Hours

Scroll right to see more
Time TempWeatherWind HumidityBarometerVisibility
4:00 PM
Fri, Oct 21
55 °FPartly sunny.3 mph82%29.98 "Hg4 mi
3:30 PM55 °FLight rain. Scattered clouds.3 mph82%29.98 "Hg4 mi
3:00 PM55 °FLight rain. Scattered clouds.3 mph82%29.98 "Hg4 mi
2:30 PM54 °FLight rain. More clouds than sun.1 mph88%29.98 "Hg4 mi
2:00 PM54 °FLight rain. More clouds than sun.6 mph88%29.98 "Hg5 mi
1:30 PM55 °FOvercast.3 mph82%29.98 "HgN/A
1:00 PM54 °FOvercast.1 mph82%29.98 "HgN/A
12:30 PM55 °FOvercast.3 mph82%30.01 "HgN/A
12:00 PM54 °FOvercast.1 mph82%30.04 "HgN/A
11:30 AM54 °FLight rain. Partly sunny.3 mph88%30.04 "HgN/A
11:00 AM54 °FLight rain. Partly sunny.3 mph82%30.04 "HgN/A
10:30 AM55 °FPartly sunny.1 mph77%30.07 "HgN/A
10:00 AM54 °FPartly sunny.3 mph82%30.07 "HgN/A
9:30 AM54 °FPartly sunny.1 mph82%30.07 "HgN/A
9:00 AM54 °FPartly sunny.1 mph82%30.04 "HgN/A
8:30 AM54 °FPartly sunny.1 mph82%30.07 "HgN/A
8:00 AM52 °FPartly sunny.1 mph82%30.04 "HgN/A
7:30 AM52 °FPartly sunny.1 mph82%30.04 "HgN/A
7:00 AM52 °FScattered clouds.6 mph82%30.04 "HgN/A
6:30 AM52 °FPassing clouds.3 mph82%30.04 "HgN/A
6:00 AM52 °FMostly cloudy.3 mph82%30.04 "HgN/A
5:30 AM52 °FMostly cloudy.6 mph77%30.04 "HgN/A
5:00 AM52 °FMostly cloudy.3 mph82%30.04 "HgN/A
4:30 AM52 °FMostly cloudy.3 mph82%30.04 "HgN/A
4:00 AM52 °FMostly cloudy.6 mph77%30.04 "HgN/A
3:30 AM52 °FMostly cloudy.6 mph82%30.04 "HgN/A
3:00 AM52 °FMostly cloudy.3 mph88%30.04 "HgN/A
2:30 AM52 °FMostly cloudy.6 mph82%30.07 "HgN/A
2:00 AM52 °FMostly cloudy.6 mph82%30.07 "HgN/A
1:30 AM50 °FMostly cloudy.10 mph88%30.07 "HgN/A
1:00 AM50 °FMostly cloudy.10 mph88%30.07 "HgN/A
12:30 AM52 °FMostly cloudy.10 mph82%30.07 "HgN/A
12:00 AM50 °FMostly cloudy.10 mph88%30.07 "HgN/A
11:30 PM
Thu, Oct 20
52 °FLight rain. Mostly cloudy.10 mph82%30.07 "HgN/A
11:00 PM52 °FLight rain. Mostly cloudy.10 mph82%30.09 "HgN/A
10:30 PM52 °FLight rain. Mostly cloudy.10 mph82%30.07 "HgN/A
10:00 PM52 °FLight rain. Mostly cloudy.13 mph82%30.07 "HgN/A
9:30 PM54 °FMostly cloudy.13 mph82%30.07 "HgN/A
9:00 PM54 °FMostly cloudy.15 mph82%30.07 "HgN/A
8:30 PM54 °FMostly cloudy.17 mph82%30.04 "HgN/A
8:00 PM54 °FMostly cloudy.15 mph82%30.04 "HgN/A
7:30 PM54 °FMostly cloudy.13 mph88%30.04 "HgN/A
7:00 PM55 °FLight rain. Mostly cloudy.13 mph82%30.04 "HgN/A
6:30 PM55 °FLight rain. Mostly cloudy.13 mph88%30.01 "HgN/A
6:00 PM57 °FLight rain. Mostly cloudy.13 mph82%30.01 "HgN/A
5:30 PM57 °FLight rain. Mostly cloudy.10 mph88%30.01 "HgN/A
5:00 PM57 °FRain. Mostly cloudy.8 mph88%30.01 "HgN/A
Weather by CustomWeather, © 2016

See weather overviewHow to use our weather pages